Sharm El Sheikh, Egypt

3:40 AM EET on May 01, 2017 (GMT +0200)
Sharm El Sheikh

Weather History for HESH - January, 2014

Change the Weather History Date:

Monday, January 27, 2014

  Actual Average Record
Temperature  
Mean Temperature 76 °F -  
Max Temperature 84 °F 73 °F - ()
Min Temperature 66 °F 56 °F - ()
Cooling Degree Days 11    
Growing Degree Days 26 (Base 50)    
Moisture  
Dew Point 43 °F    
Average Humidity 43    
Maximum Humidity 73    
Minimum Humidity 8    
Precipitation  
Precipitation 0.00 in 0.00 in - ()
Sea Level Pressure  
Sea Level Pressure 29.69 in    
Wind  
Wind Speed 4 mph ()    
Max Wind Speed 14 mph    
Max Gust Speed -    
Visibility 6.2 miles    
Events      
T = Trace of Precipitation, MM = Missing Value Source: Averaged Metar Reports

Daily Weather History Graph

Daily Weather History Graph

Search for Another Location

Airport or City:

Trip Planner

Search our weather history database for the weather conditions in past years. The results will help you decide how hot, cold, wet, or windy it might be!

Date:

Astronomy

Jan. 27, 2014 Rise Set
Actual Time 6:32 AM EET 5:18 PM EET
Civil Twilight 6:07 AM EET 5:43 PM EET
Nautical Twilight 5:38 AM EET 6:11 PM EET
Astronomical Twilight 5:11 AM EET 6:39 PM EET
Moon 2:48 AM EET (1/27) 1:47 PM EET (1/27)
Length of Visible Light 11h 36m
Length of Day
10h 46m
Waning Crescent, 17% of the Moon is Illuminated
Jan 27
Waning Crescent
Jan 30
New
Feb 6
First Quarter
Feb 15
Full
Feb 22
Last Quarter

Hourly Weather History & Observations

Time (EET) Temp. Heat Index Dew Point Humidity Pressure Visibility Wind Dir Wind Speed Gust Speed Precip Events Conditions
12:00 AM 69.8 °F - 53.6 °F 56% 29.74 in - Calm Calm - N/A   Clear
1:00 AM 71.6 °F - 57.2 °F 60% 29.74 in - Variable 2.3 mph - N/A   Clear
2:00 AM 69.8 °F - 57.2 °F 64% 29.74 in - WNW 2.3 mph - N/A   Clear
3:00 AM 69.8 °F - 57.2 °F 64% 29.71 in 6.2 mi Calm Calm - N/A   Mostly Cloudy
4:00 AM 69.8 °F - 59.0 °F 68% 29.68 in 6.2 mi West 1.2 mph - N/A   Mostly Cloudy
5:00 AM 68.0 °F - 59.0 °F 73% 29.68 in 6.2 mi Calm Calm - N/A   Mostly Cloudy
6:00 AM 69.8 °F - 60.8 °F 73% 29.68 in 6.2 mi WSW 2.3 mph - N/A   Scattered Clouds
7:00 AM 69.8 °F - 60.8 °F 73% 29.68 in 6.2 mi WSW 2.3 mph - N/A   Scattered Clouds
8:00 AM 71.6 °F - 62.6 °F 73% 29.68 in 6.2 mi Variable 1.2 mph - N/A   Partly Cloudy
9:00 AM 75.2 °F - 62.6 °F 65% 29.71 in 6.2 mi SSW 6.9 mph - N/A   Partly Cloudy
10:00 AM 80.6 °F 83.2 °F 68.0 °F 65% 29.68 in 6.2 mi Variable 3.5 mph - N/A   Partly Cloudy
11:00 AM 84.2 °F 87.3 °F 68.0 °F 58% 29.68 in 6.2 mi SW 9.2 mph - N/A   Partly Cloudy
12:00 PM - - - N/A% 29.65 in - North - - N/A   Clear
1:00 PM 84.2 °F - 26.6 °F 12% 29.62 in - West 5.8 mph - N/A   Clear
2:00 PM 82.4 °F - 23.0 °F 11% 29.62 in 6.2 mi SW 13.8 mph - N/A   Partly Cloudy
3:00 PM 80.6 °F - 14.0 °F 8% 29.62 in 6.2 mi WSW 11.5 mph - N/A   Partly Cloudy
4:00 PM 80.6 °F - 17.6 °F 10% 29.62 in 6.2 mi WSW 10.4 mph - N/A   Partly Cloudy
5:00 PM 77.0 °F - 17.6 °F 11% 29.65 in - WSW 9.2 mph - N/A   Clear
6:00 PM 73.4 °F - 19.4 °F 13% 29.65 in - WSW 9.2 mph - N/A   Clear
7:00 PM 71.6 °F - 23.0 °F 16% 29.68 in - WSW 8.1 mph - N/A   Clear
8:00 PM 71.6 °F - 24.8 °F 17% 29.71 in - WSW 4.6 mph - N/A   Clear
9:00 PM - - - N/A% 29.71 in - North - - N/A   Clear
10:00 PM 68.0 °F - 24.8 °F 20% 29.74 in - WSW 6.9 mph - N/A   Clear
11:00 PM 66.2 °F - 30.2 °F 26% 29.77 in - West 13.8 mph - N/A   Clear